Location: Newark
(49.3000°N, 9.4667°E)
Time: 01:53:11
(UTC+00:00)

Transit 2A Rocket - Pass Details

Date: 27 May 2019
Orbit: 586 x 917 km, 66.7° (Epoch: 23 June)

Event Time Altitude Azimuth Distance (km) Brightness Sun altitude
Rises 20:27:29 0° 307° (NW) 3,540 10.3 -9.7°
Reaches altitude 10° 20:31:27 10° 332° (NNW) 2,561 9.2 -10.1°
Maximum altitude 20:34:30 14° 3° (N) 2,234 8.1 -10.4°
Drops below altitude 10° 20:37:29 10° 34° (NE) 2,472 7.9 -10.7°
Sets 20:41:11 0° 60° (ENE) 3,335 8.2 -11.1°
